sat.trackr.live / text

‹ back to catalog

STARLINK-3625

NORAD 51777 · 2022-017K

PAYLOAD ACTIVE UNKNOWN

§ Identity

Operator
Country
US
Launch date
2022-02-25
Launch site
AFWTR
Launch vehicle
Mass (kg)
RCS (m²)

Purposes: comms

External: N2YO · Heavens-Above · Gunter

§ Orbital elements

Epoch: 2026-05-24T23:18:01.859040Z

Period
95.44 min
Inclination
53.2134°
Eccentricity
0.0001061
Mean motion
15.08846318 rev/d
Perigee alt
539.0 km
Apogee alt
540.5 km
Semi-major
6,917.9 km
B*
8.8522e-5
RAAN
356.6514°
Arg perigee
58.5257°
Mean anomaly
301.5839°
Rev number
23,411

§ Raw data

STARLINK-36251 51777U 22017K   26144.97085485  .00001122  00000+0  88522-4 0  99962 51777  53.2134 356.6514 0001061  58.5257 301.5839 15.08846318234111

JSON: /api/v1/satellites/51777 · /tle

For live sub-satellite position, see the globe view (requires WebGL).

§ Visibility from observer

Set your observer location to see the next 7 days of passes ≥ 10°. The values pass through the URL so the page stays shareable.

No JS? Fill the form by hand. The geolocation button needs JavaScript.